Time,TemperatureF,DewpointF,PressureIn,WindDirection,WindDirectionDegrees,WindSpeedMPH,WindSpeedGustMPH,Humidity,HourlyPrecipIn,Conditions,Clouds,dailyrainin,SoftwareType,DateUTC
2013-05-27 00:03:00,57.8,56.0,30.12,SE,132,2.0,-999.0,95,-99.99,,,0.52,weatherlink.com 1.10,2013-05-27 04:03:00,
2013-05-27 00:18:00,57.8,57.0,30.12,SSE,158,2.0,-999.0,96,-99.99,,,0.55,weatherlink.com 1.10,2013-05-27 04:18:00,
2013-05-27 00:33:00,57.7,57.0,30.11,SE,133,4.0,-999.0,96,-99.99,,,0.59,weatherlink.com 1.10,2013-05-27 04:33:00,
2013-05-27 00:48:00,57.7,57.0,30.10,East,94,8.0,-999.0,96,-99.99,,,0.68,weatherlink.com 1.10,2013-05-27 04:48:00,
2013-05-27 01:03:00,57.7,57.0,30.10,SE,140,4.0,-999.0,96,-99.99,,,0.78,weatherlink.com 1.10,2013-05-27 05:03:00,
2013-05-27 01:18:00,57.8,57.0,30.09,ESE,103,5.0,-999.0,96,-99.99,,,0.81,weatherlink.com 1.10,2013-05-27 05:18:00,
2013-05-27 01:33:00,57.8,57.0,30.08,ESE,105,4.0,-999.0,97,-99.99,,,0.00,weatherlink.com 1.10,2013-05-27 05:33:00,
2013-05-27 01:48:00,57.8,57.0,30.07,ESE,113,2.0,-999.0,97,-99.99,,,0.00,weatherlink.com 1.10,2013-05-27 05:48:00,
2013-05-27 02:03:00,57.9,57.0,30.07,ESE,103,5.0,-999.0,96,-99.99,,,0.00,weatherlink.com 1.10,2013-05-27 06:03:00,
2013-05-27 02:18:00,58.0,57.0,30.07,ESE,111,5.0,-999.0,96,-99.99,,,0.00,weatherlink.com 1.10,2013-05-27 06:18:00,
2013-05-27 02:33:00,58.1,57.0,30.07,ESE,111,4.0,-999.0,96,-99.99,,,0.00,weatherlink.com 1.10,2013-05-27 06:33:00,
2013-05-27 02:48:00,58.3,57.0,30.08,NE,37,6.0,-999.0,95,-99.99,,,0.00,weatherlink.com 1.10,2013-05-27 06:48:00,
2013-05-27 03:03:00,58.2,57.0,30.08,East,83,6.0,-999.0,95,-99.99,,,0.00,weatherlink.com 1.10,2013-05-27 07:03:00,
2013-05-27 03:18:00,58.2,57.0,30.09,NNE,24,4.0,-999.0,95,-99.99,,,0.01,weatherlink.com 1.10,2013-05-27 07:18:00,
2013-05-27 03:33:00,57.8,57.0,30.08,ENE,76,4.0,-999.0,96,-99.99,,,0.01,weatherlink.com 1.10,2013-05-27 07:33:00,
2013-05-27 03:48:00,57.8,57.0,30.07,NE,44,5.0,-999.0,96,-99.99,,,0.04,weatherlink.com 1.10,2013-05-27 07:48:00,
2013-05-27 04:03:00,57.8,57.0,30.06,East,79,6.0,-999.0,96,-99.99,,,0.04,weatherlink.com 1.10,2013-05-27 08:03:00,
2013-05-27 04:18:00,57.9,57.0,30.07,East,82,3.0,-999.0,96,-99.99,,,0.04,weatherlink.com 1.10,2013-05-27 08:18:00,
2013-05-27 04:33:00,58.0,57.0,30.07,East,82,5.0,-999.0,96,-99.99,,,0.04,weatherlink.com 1.10,2013-05-27 08:33:00,
2013-05-27 04:48:00,58.0,57.0,30.06,East,98,5.0,-999.0,95,-99.99,,,0.04,weatherlink.com 1.10,2013-05-27 08:48:00,
2013-05-27 05:03:00,58.0,57.0,30.06,ESE,111,1.0,-999.0,95,-99.99,,,0.04,weatherlink.com 1.10,2013-05-27 09:03:00,
2013-05-27 05:18:00,58.0,57.0,30.07,ENE,65,0.0,-999.0,95,-99.99,,,0.04,weatherlink.com 1.10,2013-05-27 09:18:00,
2013-05-27 05:33:00,58.0,57.0,30.07,ENE,65,1.0,-999.0,95,-99.99,,,0.04,weatherlink.com 1.10,2013-05-27 09:33:00,
2013-05-27 05:48:00,58.0,57.0,30.06,East,96,5.0,-999.0,95,-99.99,,,0.04,weatherlink.com 1.10,2013-05-27 09:48:00,
2013-05-27 06:03:00,58.0,57.0,30.06,ESE,103,4.0,-999.0,95,-99.99,,,0.04,weatherlink.com 1.10,2013-05-27 10:03:00,
2013-05-27 06:18:00,57.9,57.0,30.05,ESE,103,2.0,-999.0,95,-99.99,,,0.04,weatherlink.com 1.10,2013-05-27 10:18:00,
2013-05-27 06:33:00,57.9,57.0,30.05,SSE,155,4.0,-999.0,95,-99.99,,,0.04,weatherlink.com 1.10,2013-05-27 10:33:00,
2013-05-27 06:48:00,58.0,57.0,30.05,SE,140,1.0,-999.0,95,-99.99,,,0.04,weatherlink.com 1.10,2013-05-27 10:48:00,
2013-05-27 07:03:00,58.0,57.0,30.05,SE,128,4.0,-999.0,95,-99.99,,,0.04,weatherlink.com 1.10,2013-05-27 11:03:00,
2013-05-27 07:18:00,58.2,57.0,30.05,SE,129,4.0,-999.0,94,-99.99,,,0.04,weatherlink.com 1.10,2013-05-27 11:18:00,
2013-05-27 07:33:00,58.4,57.0,30.05,SSE,151,4.0,-999.0,94,-99.99,,,0.04,weatherlink.com 1.10,2013-05-27 11:33:00,
2013-05-27 07:48:00,58.6,57.0,30.04,ESE,121,4.0,-999.0,93,-99.99,,,0.04,weatherlink.com 1.10,2013-05-27 11:48:00,
2013-05-27 08:03:00,59.3,57.0,30.03,ESE,123,2.0,-999.0,92,-99.99,,,0.04,weatherlink.com 1.10,2013-05-27 12:03:00,
2013-05-27 08:18:00,59.6,57.0,30.02,SE,128,5.0,-999.0,92,-99.99,,,0.04,weatherlink.com 1.10,2013-05-27 12:18:00,
2013-05-27 08:33:00,59.5,57.0,30.02,SE,134,7.0,-999.0,91,-99.99,,,0.04,weatherlink.com 1.10,2013-05-27 12:33:00,
2013-05-27 08:48:00,59.5,57.0,30.02,SSE,153,5.0,-999.0,92,-99.99,,,0.04,weatherlink.com 1.10,2013-05-27 12:48:00,
2013-05-27 09:04:00,59.6,57.0,30.00,SSE,147,7.0,-999.0,91,-99.99,,,0.04,weatherlink.com 1.10,2013-05-27 13:04:00,
2013-05-27 09:19:00,59.9,57.0,30.00,ESE,109,4.0,-999.0,91,-99.99,,,0.04,weatherlink.com 1.10,2013-05-27 13:19:00,
2013-05-27 09:34:00,60.1,58.0,30.00,SE,137,7.0,-999.0,91,-99.99,,,0.04,weatherlink.com 1.10,2013-05-27 13:34:00,
2013-05-27 09:49:00,60.4,58.0,29.99,East,101,2.0,-999.0,90,-99.99,,,0.04,weatherlink.com 1.10,2013-05-27 13:49:00,
2013-05-27 10:04:00,61.0,58.0,29.99,ESE,109,5.0,-999.0,90,-99.99,,,0.04,weatherlink.com 1.10,2013-05-27 14:04:00,
2013-05-27 10:19:00,61.6,58.0,29.99,ESE,114,2.0,-999.0,89,-99.99,,,0.04,weatherlink.com 1.10,2013-05-27 14:19:00,
2013-05-27 10:34:00,62.4,59.0,29.99,SSE,151,5.0,-999.0,88,-99.99,,,0.04,weatherlink.com 1.10,2013-05-27 14:34:00,
2013-05-27 10:49:00,62.9,59.0,29.98,SE,139,2.0,-999.0,88,-99.99,,,0.05,weatherlink.com 1.10,2013-05-27 14:49:00,
2013-05-27 11:04:00,62.8,59.0,29.99,SE,143,7.0,-999.0,87,-99.99,,,0.05,weatherlink.com 1.10,2013-05-27 15:04:00,
2013-05-27 11:19:00,62.9,59.0,29.98,SE,142,7.0,-999.0,88,-99.99,,,0.05,weatherlink.com 1.10,2013-05-27 15:19:00,
2013-05-27 11:34:00,63.6,60.0,29.99,SSE,166,2.0,-999.0,87,-99.99,,,0.05,weatherlink.com 1.10,2013-05-27 15:34:00,
2013-05-27 11:49:00,64.3,60.0,29.98,South,175,1.0,-999.0,87,-99.99,,,0.05,weatherlink.com 1.10,2013-05-27 15:49:00,
2013-05-27 12:04:00,64.9,61.0,29.97,South,175,8.0,-999.0,86,-99.99,,,0.05,weatherlink.com 1.10,2013-05-27 16:04:00,
2013-05-27 12:19:00,65.9,61.0,29.96,SE,146,5.0,-999.0,85,-99.99,,,0.05,weatherlink.com 1.10,2013-05-27 16:19:00,
2013-05-27 12:34:00,66.4,62.0,29.96,SSE,160,5.0,-999.0,84,-99.99,,,0.05,weatherlink.com 1.10,2013-05-27 16:34:00,
2013-05-27 12:49:00,66.9,62.0,29.95,South,180,2.0,-999.0,85,-99.99,,,0.05,weatherlink.com 1.10,2013-05-27 16:49:00,
2013-05-27 13:04:00,67.2,62.0,29.95,South,179,1.0,-999.0,84,-99.99,,,0.05,weatherlink.com 1.10,2013-05-27 17:04:00,
2013-05-27 13:19:00,67.5,63.0,29.94,South,187,3.0,-999.0,84,-99.99,,,0.05,weatherlink.com 1.10,2013-05-27 17:19:00,
2013-05-27 13:34:00,68.0,63.0,29.93,South,174,4.0,-999.0,84,-99.99,,,0.05,weatherlink.com 1.10,2013-05-27 17:34:00,
2013-05-27 13:49:00,68.8,64.0,29.93,South,184,2.0,-999.0,85,-99.99,,,0.05,weatherlink.com 1.10,2013-05-27 17:49:00,
2013-05-27 14:04:00,70.2,65.0,29.93,South,191,2.0,-999.0,84,-99.99,,,0.05,weatherlink.com 1.10,2013-05-27 18:04:00,
2013-05-27 14:19:00,70.9,65.0,29.93,South,190,3.0,-999.0,82,-99.99,,,0.05,weatherlink.com 1.10,2013-05-27 18:19:00,
2013-05-27 14:34:00,71.3,66.0,29.93,SSW,197,5.0,-999.0,82,-99.99,,,0.05,weatherlink.com 1.10,2013-05-27 18:34:00,
2013-05-27 14:49:00,71.7,66.0,29.93,SSW,199,2.0,-999.0,83,-99.99,,,0.05,weatherlink.com 1.10,2013-05-27 18:49:00,
2013-05-27 15:04:00,72.6,67.0,29.92,SSW,199,0.0,-999.0,83,-99.99,,,0.05,weatherlink.com 1.10,2013-05-27 19:04:00,
2013-05-27 15:19:00,73.4,68.0,29.92,SW,223,3.0,-999.0,83,-99.99,,,0.05,weatherlink.com 1.10,2013-05-27 19:19:00,
2013-05-27 15:35:00,75.0,68.0,29.91,WSW,238,6.0,-999.0,79,-99.99,,,0.05,weatherlink.com 1.10,2013-05-27 19:35:00,
2013-05-27 15:50:00,74.6,68.0,29.89,SSW,213,4.0,-999.0,80,-99.99,,,0.05,weatherlink.com 1.10,2013-05-27 19:50:00,
2013-05-27 16:05:00,75.9,70.0,29.89,SW,217,6.0,-999.0,82,-99.99,,,0.05,weatherlink.com 1.10,2013-05-27 20:05:00,
2013-05-27 16:20:00,76.9,70.0,29.88,SW,215,5.0,-999.0,78,-99.99,,,0.05,weatherlink.com 1.10,2013-05-27 20:20:00,
2013-05-27 16:35:00,76.3,69.0,29.87,WSW,238,5.0,-999.0,78,-99.99,,,0.05,weatherlink.com 1.10,2013-05-27 20:35:00,
2013-05-27 16:50:00,76.6,70.0,29.86,SW,229,1.0,-999.0,81,-99.99,,,0.05,weatherlink.com 1.10,2013-05-27 20:50:00,
2013-05-27 17:05:00,75.7,70.0,29.86,SW,215,1.0,-999.0,83,-99.99,,,0.05,weatherlink.com 1.10,2013-05-27 21:05:00,
2013-05-27 17:20:00,69.6,65.0,29.86,SSW,202,6.0,-999.0,86,-99.99,,,0.18,weatherlink.com 1.10,2013-05-27 21:20:00,
2013-05-27 17:35:00,69.9,68.0,29.86,SSW,192,1.0,-999.0,94,-99.99,,,0.18,weatherlink.com 1.10,2013-05-27 21:35:00,
2013-05-27 17:50:00,70.1,68.0,29.85,SSW,192,2.0,-999.0,94,-99.99,,,0.19,weatherlink.com 1.10,2013-05-27 21:50:00,
2013-05-27 18:05:00,70.6,68.0,29.84,South,186,4.0,-999.0,91,-99.99,,,0.22,weatherlink.com 1.10,2013-05-27 22:05:00,
2013-05-27 18:20:00,70.0,67.0,29.84,South,190,5.0,-999.0,89,-99.99,,,0.23,weatherlink.com 1.10,2013-05-27 22:20:00,
2013-05-27 18:35:00,70.1,67.0,29.84,South,189,1.0,-999.0,91,-99.99,,,0.23,weatherlink.com 1.10,2013-05-27 22:35:00,
2013-05-27 18:50:00,69.9,68.0,29.86,South,177,4.0,-999.0,93,-99.99,,,0.23,weatherlink.com 1.10,2013-05-27 22:50:00,
2013-05-27 19:05:00,69.8,68.0,29.87,SSW,205,5.0,-999.0,94,-99.99,,,0.24,weatherlink.com 1.10,2013-05-27 23:05:00,
2013-05-27 19:20:00,68.3,66.0,29.87,SSW,192,9.0,-999.0,91,-99.99,,,0.27,weatherlink.com 1.10,2013-05-27 23:20:00,
2013-05-27 19:35:00,67.3,65.0,29.86,SW,217,10.0,-999.0,92,-99.99,,,0.31,weatherlink.com 1.10,2013-05-27 23:35:00,
2013-05-27 19:50:00,66.3,64.0,29.86,SSW,205,9.0,-999.0,93,-99.99,,,0.34,weatherlink.com 1.10,2013-05-27 23:50:00,
2013-05-27 20:05:00,65.8,64.0,29.87,SW,219,4.0,-999.0,94,-99.99,,,0.37,weatherlink.com 1.10,2013-05-28 00:05:00,
2013-05-27 20:20:00,65.6,64.0,29.85,SSW,209,2.0,-999.0,95,-99.99,,,0.38,weatherlink.com 1.10,2013-05-28 00:20:00,
2013-05-27 20:35:00,65.3,64.0,29.86,WNW,296,3.0,-999.0,95,-99.99,,,0.40,weatherlink.com 1.10,2013-05-28 00:35:00,
2013-05-27 20:50:00,65.1,64.0,29.84,WNW,299,1.0,-999.0,95,-99.99,,,0.40,weatherlink.com 1.10,2013-05-28 00:50:00,
2013-05-27 21:05:00,64.9,64.0,29.83,WNW,299,0.0,-999.0,96,-99.99,,,0.40,weatherlink.com 1.10,2013-05-28 01:05:00,
2013-05-27 21:20:00,64.5,64.0,29.82,WNW,299,0.0,-999.0,97,-99.99,,,0.40,weatherlink.com 1.10,2013-05-28 01:20:00,
2013-05-27 21:35:00,64.6,64.0,29.82,WNW,299,0.0,-999.0,97,-99.99,,,0.40,weatherlink.com 1.10,2013-05-28 01:35:00,
2013-05-27 21:50:00,64.5,64.0,29.81,East,80,3.0,-999.0,97,-99.99,,,0.40,weatherlink.com 1.10,2013-05-28 01:50:00,
2013-05-27 22:05:00,64.6,64.0,29.82,East,81,0.0,-999.0,97,-99.99,,,0.40,weatherlink.com 1.10,2013-05-28 02:05:00,
2013-05-27 22:20:00,64.2,63.0,29.85,East,80,2.0,-999.0,97,-99.99,,,0.40,weatherlink.com 1.10,2013-05-28 02:20:00,
2013-05-27 22:35:00,63.9,63.0,29.87,East,80,0.0,-999.0,97,-99.99,,,0.40,weatherlink.com 1.10,2013-05-28 02:35:00,
2013-05-27 22:50:00,63.7,63.0,29.87,East,80,0.0,-999.0,97,-99.99,,,0.40,weatherlink.com 1.10,2013-05-28 02:50:00,
2013-05-27 23:05:00,63.2,63.0,29.88,East,80,0.0,-999.0,98,-99.99,,,0.40,weatherlink.com 1.10,2013-05-28 03:05:00,
2013-05-27 23:20:00,63.1,63.0,29.88,East,80,0.0,-999.0,98,-99.99,,,0.40,weatherlink.com 1.10,2013-05-28 03:20:00,
2013-05-27 23:35:00,63.0,63.0,29.88,East,80,0.0,-999.0,98,-99.99,,,0.40,weatherlink.com 1.10,2013-05-28 03:35:00,
2013-05-27 23:50:00,63.2,63.0,29.89,East,80,0.0,-999.0,98,-99.99,,,0.40,weatherlink.com 1.10,2013-05-28 03:50:00,